Troy, MI

4:45 AM EDT on October 14, 2019 (GMT -0400)
Troy

Weather History for KVLL - September, 2019

Change the Weather History Date:

Tuesday, September 17, 2019

  Actual Average (KDET) Record (KDET)
Temperature  
Mean Temperature 70 °F -  
Max Temperature 77 °F 72 °F 93 °F (1955)
Min Temperature 64 °F 57 °F 36 °F (1959)
Cooling Degree Days 6    
Growing Degree Days 20 (Base 50)    
Moisture  
Dew Point 59 °F    
Average Humidity 72    
Maximum Humidity 92    
Minimum Humidity 49    
Precipitation  
Precipitation 0.00 in - - ()
Sea Level Pressure  
Sea Level Pressure 30.21 in    
Wind  
Wind Speed 5 mph ()    
Max Wind Speed 10 mph    
Max Gust Speed -    
Visibility 9.2 miles    
Events      
Averages and records for this station are not official NWS values.
T = Trace of Precipitation, MM = Missing Value Source: Averaged Metar Reports

Daily Weather History Graph

Daily Weather History Graph

Search for Another Location

Airport or City:

Astronomy

Sep. 17, 2019 Rise Set
Actual Time 7:14 AM EDT 7:39 PM EDT
Civil Twilight 6:46 AM EDT 8:07 PM EDT
Nautical Twilight 6:12 AM EDT 8:40 PM EDT
Astronomical Twilight 5:38 AM EDT 9:14 PM EDT
Moon 9:38 PM EDT (9/17) 10:21 AM EDT (9/17)
Length of Visible Light 13h 21m
Length of Day
12h 24m
Waning Gibbous, 89% of the Moon is Illuminated
Sep 17
Waning Gibbous
Sep 21
Last Quarter
Sep 28
New
Oct 5
First Quarter
Oct 13
Full

Hourly Weather History & Observations

Time (EDT) Temp. Dew Point Humidity Pressure Visibility Wind Dir Wind Speed Gust Speed Precip Events Conditions
12:18 AM 66.6 °F 62.4 °F 86% 30.18 in 10.0 mi NE 8.1 mph - N/A   Overcast
12:36 AM 65.5 °F 61.2 °F 86% 30.17 in 10.0 mi NNE 10.4 mph - N/A   Overcast
12:55 AM 65.3 °F 60.8 °F 85% 30.17 in 10.0 mi NE 6.9 mph - N/A   Overcast
12:56 AM 65.3 °F 60.8 °F 85% 30.17 in 10.0 mi ENE 5.8 mph - N/A   Overcast
1:15 AM 64.8 °F 60.8 °F 87% 30.17 in 10.0 mi NNE 4.6 mph - N/A   Overcast
1:39 AM 64.6 °F 60.6 °F 87% 30.18 in 10.0 mi NE 5.8 mph - N/A   Overcast
1:57 AM 64.6 °F 60.8 °F 88% 30.18 in 10.0 mi ENE 6.9 mph - N/A   Overcast
2:15 AM 64.8 °F 60.6 °F 86% 30.18 in 10.0 mi ENE 4.6 mph - N/A   Overcast
2:35 AM 64.6 °F 60.4 °F 86% 30.18 in 10.0 mi NE 5.8 mph - N/A   Overcast
2:55 AM 64.6 °F 60.4 °F 86% 30.18 in 10.0 mi NE 5.8 mph - N/A   Overcast
3:18 AM 64.6 °F 60.4 °F 86% 30.18 in 10.0 mi NNE 8.1 mph - N/A   Overcast
3:36 AM 64.4 °F 60.6 °F 88% 30.18 in 10.0 mi NE 5.8 mph - N/A   Overcast
3:55 AM 64.4 °F 60.4 °F 87% 30.18 in 10.0 mi NE 6.9 mph - N/A   Overcast
4:15 AM 64.4 °F 60.8 °F 88% 30.18 in 10.0 mi NE 5.8 mph - N/A   Overcast
4:39 AM 64.4 °F 60.8 °F 88% 30.18 in 10.0 mi NE 10.4 mph - N/A   Overcast
4:57 AM 64.4 °F 61.0 °F 89% 30.18 in 7.0 mi NNE 4.6 mph - N/A   Overcast
5:16 AM 64.0 °F 61.3 °F 91% 30.18 in 7.0 mi NE 5.8 mph - N/A   Overcast
5:35 AM 64.4 °F 61.5 °F 90% 30.19 in 10.0 mi North 3.5 mph - N/A   Overcast
5:36 AM 64.4 °F 61.5 °F 90% 30.19 in 10.0 mi North 4.6 mph - N/A   Overcast
5:55 AM 64.4 °F 61.7 °F 91% 30.19 in 7.0 mi Calm Calm - N/A   Overcast
5:56 AM 64.4 °F 61.7 °F 91% 30.20 in 7.0 mi NNE 3.5 mph - N/A   Overcast
6:19 AM 64.4 °F 61.7 °F 91% 30.20 in 7.0 mi NNE 4.6 mph - N/A   Overcast
6:37 AM 64.4 °F 61.9 °F 92% 30.20 in 7.0 mi Calm Calm - N/A   Overcast
6:55 AM 64.4 °F 61.7 °F 91% 30.22 in 4.0 mi North 3.5 mph - N/A   Overcast
7:15 AM 64.4 °F 61.7 °F 91% 30.22 in 7.0 mi Calm Calm - N/A   Overcast
7:16 AM 64.6 °F 61.9 °F 91% 30.22 in 7.0 mi Calm Calm - N/A   Overcast
7:35 AM 64.9 °F 61.7 °F 89% 30.23 in 7.0 mi Calm Calm - N/A   Overcast
7:40 AM 64.9 °F 61.9 °F 90% 30.23 in 7.0 mi Calm Calm - N/A   Overcast
7:58 AM 65.1 °F 62.1 °F 90% 30.24 in 7.0 mi Calm Calm - N/A   Overcast
8:16 AM 65.3 °F 62.2 °F 90% 30.24 in 7.0 mi Calm Calm - N/A   Overcast
8:35 AM 65.3 °F 62.2 °F 90% 30.24 in 5.0 mi North 3.5 mph - N/A   Overcast
8:56 AM 66.2 °F 62.6 °F 88% 30.25 in 7.0 mi North 4.6 mph - N/A   Mostly Cloudy
9:19 AM 66.6 °F 62.6 °F 87% 30.25 in 7.0 mi NNE 5.8 mph - N/A   Mostly Cloudy
9:37 AM 66.7 °F 62.8 °F 87% 30.25 in 7.0 mi NNE 3.5 mph - N/A   Overcast
9:55 AM 66.7 °F 62.6 °F 86% 30.25 in 7.0 mi NE 4.6 mph - N/A   Overcast
10:15 AM 67.3 °F 62.6 °F 85% 30.25 in 7.0 mi NE 3.5 mph - N/A   Mostly Cloudy
10:35 AM 68.2 °F 62.6 °F 82% 30.25 in 7.0 mi ENE 4.6 mph - N/A   Overcast
10:58 AM 69.1 °F 62.4 °F 79% 30.25 in 10.0 mi NE 5.8 mph - N/A   Overcast
11:16 AM 69.6 °F 62.4 °F 78% 30.25 in 10.0 mi ENE 4.6 mph - N/A   Mostly Cloudy
11:35 AM 69.8 °F 61.7 °F 75% 30.24 in 10.0 mi ENE 3.5 mph - N/A   Scattered Clouds
11:55 AM 71.1 °F 61.3 °F 71% 30.25 in 10.0 mi East 3.5 mph - N/A   Mostly Cloudy
12:15 PM 71.2 °F 60.6 °F 69% 30.24 in 10.0 mi ENE 3.5 mph - N/A   Mostly Cloudy
12:38 PM 72.5 °F 60.3 °F 65% 30.23 in 10.0 mi East 5.8 mph - N/A   Scattered Clouds
1:15 PM 73.4 °F 60.8 °F 65% 30.23 in 10.0 mi ESE 4.6 mph - N/A   Scattered Clouds
1:35 PM 73.6 °F 59.9 °F 62% 30.23 in 10.0 mi East 6.9 mph - N/A   Clear
1:55 PM 74.5 °F 57.2 °F 55% 30.23 in 10.0 mi East 9.2 mph - N/A   Clear
2:18 PM 75.9 °F 57.6 °F 53% 30.22 in 10.0 mi East 5.8 mph - N/A   Clear
2:35 PM 76.1 °F 57.0 °F 51% 30.22 in 10.0 mi East 4.6 mph - N/A   Clear
2:55 PM 76.3 °F 57.6 °F 52% 30.22 in 10.0 mi NE 4.6 mph - N/A   Clear
2:56 PM 76.3 °F 57.7 °F 53% 30.22 in 10.0 mi ENE 5.8 mph - N/A   Clear
3:15 PM 77.0 °F 57.2 °F 50% 30.22 in 10.0 mi East 3.5 mph - N/A   Clear
3:39 PM 75.9 °F 56.7 °F 51% 30.21 in 10.0 mi ENE 6.9 mph - N/A   Clear
3:57 PM 77.2 °F 57.6 °F 51% 30.22 in 10.0 mi East 5.8 mph - N/A   Clear
4:15 PM 76.8 °F 57.2 °F 51% 30.22 in 10.0 mi ENE 5.8 mph - N/A   Clear
4:16 PM 76.8 °F 57.4 °F 51% 30.21 in 10.0 mi ENE 6.9 mph - N/A   Clear
4:35 PM 77.0 °F 57.0 °F 50% 30.20 in 10.0 mi East 5.8 mph - N/A   Clear
4:36 PM 77.2 °F 57.0 °F 50% 30.20 in 10.0 mi East 4.6 mph - N/A   Clear
4:55 PM 77.4 °F 57.6 °F 50% 30.20 in 10.0 mi East 8.1 mph - N/A   Clear
5:00 PM 77.4 °F 57.6 °F 50% 30.20 in 10.0 mi ESE 3.5 mph - N/A   Clear
5:18 PM 76.6 °F 57.7 °F 52% 30.20 in 10.0 mi ESE 4.6 mph - N/A   Clear
5:36 PM 76.6 °F 56.8 °F 50% 30.20 in 10.0 mi East 4.6 mph - N/A   Clear
5:55 PM 76.6 °F 56.7 °F 50% 30.19 in 10.0 mi ESE 6.9 mph - N/A   Clear
5:56 PM 76.6 °F 56.7 °F 50% 30.19 in 10.0 mi ESE 4.6 mph - N/A   Clear
6:15 PM 76.1 °F 56.1 °F 50% 30.19 in 10.0 mi East 5.8 mph - N/A   Clear
6:16 PM 76.1 °F 56.1 °F 50% 30.19 in 10.0 mi ESE 4.6 mph - N/A   Clear
6:39 PM 75.7 °F 56.1 °F 50% 30.18 in 10.0 mi ESE 4.6 mph - N/A   Clear
6:57 PM 75.4 °F 55.6 °F 50% 30.19 in 10.0 mi ESE 4.6 mph - N/A   Clear
7:15 PM 75.0 °F 54.5 °F 49% 30.19 in 10.0 mi East 5.8 mph - N/A   Clear
7:35 PM 72.5 °F 55.6 °F 55% 30.19 in 10.0 mi ESE 3.5 mph - N/A   Clear
7:36 PM 72.3 °F 55.6 °F 56% 30.19 in 10.0 mi ESE 3.5 mph - N/A   Clear
7:55 PM 71.2 °F 55.4 °F 57% 30.18 in 10.0 mi ESE 3.5 mph - N/A   Clear
8:00 PM 71.2 °F 55.2 °F 57% 30.19 in 10.0 mi ESE 3.5 mph - N/A   Clear
8:18 PM 70.7 °F 54.7 °F 57% 30.19 in 10.0 mi Calm Calm - N/A   Clear
8:36 PM 69.8 °F 54.7 °F 59% 30.20 in 10.0 mi Calm Calm - N/A   Clear
8:55 PM 68.5 °F 54.7 °F 61% 30.20 in 10.0 mi ESE 3.5 mph - N/A   Clear
9:15 PM 68.5 °F 54.7 °F 61% 30.20 in 10.0 mi Calm Calm - N/A   Clear
9:16 PM 68.5 °F 54.7 °F 61% 30.20 in 10.0 mi Calm Calm - N/A   Clear
9:38 PM 68.2 °F 55.8 °F 64% 30.20 in 10.0 mi Calm Calm - N/A   Clear
9:57 PM 66.9 °F 55.8 °F 67% 30.20 in 10.0 mi Calm Calm - N/A   Clear
10:15 PM 66.9 °F 56.3 °F 69% 30.20 in 10.0 mi Calm Calm - N/A   Clear
10:35 PM 65.8 °F 55.9 °F 70% 30.21 in 10.0 mi ENE 3.5 mph - N/A   Clear
10:55 PM 66.4 °F 56.1 °F 69% 30.22 in 10.0 mi Calm Calm - N/A   Clear
11:18 PM 66.0 °F 56.8 °F 72% 30.22 in 10.0 mi Calm Calm - N/A   Clear
11:37 PM 64.8 °F 59.5 °F 83% 30.22 in 10.0 mi Calm Calm - N/A   Clear
11:55 PM 64.8 °F 59.2 °F 82% 30.22 in 10.0 mi NE 4.6 mph - N/A   Clear
11:56 PM 64.8 °F 59.2 °F 82% 30.22 in 10.0 mi NE 4.6 mph - N/A   Clear